FW7918 Weather Reports


time (UTC)temp
C
wind
direction
speed
KPH
gust
KPH
rain 1hr
cm
rain 24hr
cm
rain mn
cm
humidity
%
barometer
mb
20260504214331 24 109 0.0 0.0 0.00 0.00 0.00 99 1009.6
20260504213828 24 107 0.0 0.0 0.00 0.00 0.00 99 1009.6
20260504213323 24 107 0.0 0.0 0.00 0.00 0.00 99 1009.8
20260504212821 24 105 0.0 0.0 0.00 0.00 0.00 99 1009.5
20260504212317 24 105 0.0 0.0 0.00 0.00 0.00 99 1009.5
20260504211815 24 102 0.0 0.0 0.00 0.00 0.00 99 1009.6
20260504211311 24 105 0.0 0.0 0.00 0.00 0.00 99 1009.4
20260504210809 24 88 0.0 0.0 0.00 0.00 0.00 99 1009.2
20260504210306 24 104 0.0 0.0 0.00 0.00 0.00 99 1009.2
20260504205803 24 106 0.0 0.0 0.00 0.00 0.00 99 1009.5
20260504205300 24 107 0.0 0.0 0.00 0.00 0.00 99 1009.3
20260504204758 24 105 0.0 0.0 0.00 0.00 0.00 99 1009.2
20260504204256 24 106 0.0 0.0 0.00 0.00 0.00 99 1009.5
20260504203755 24 100 0.0 0.0 0.00 0.00 0.00 99 1009.5
20260504203252 24 107 0.0 0.0 0.00 0.00 0.00 99 1009.6
20260504202747 24 108 0.0 0.0 0.00 0.00 0.00 99 1009.6
20260504202244 24 106 0.0 0.0 0.00 0.00 0.00 99 1009.7
20260504201741 24 106 0.0 0.0 0.00 0.00 0.00 99 1009.5
20260504201238 25 106 0.0 0.0 0.00 0.00 0.00 99 1009.6
20260504200736 25 95 0.0 0.0 0.00 0.00 0.00 99 1009.4
20260504200231 25 91 0.0 0.0 0.00 0.00 0.00 99 1009.4
20260504195729 25 103 0.0 0.0 0.00 0.00 0.00 99 1009.4
20260504195224 24 103 0.0 0.0 0.00 0.00 0.00 99 1009.7
20260504194722 24 101 0.0 0.0 0.00 0.00 0.00 99 1009.6
20260504194218 25 100 0.0 0.0 0.00 0.00 0.00 99 1009.8
20260504193714 25 100 0.0 0.0 0.00 0.00 0.00 99 1009.9
20260504193212 25 92 0.0 0.0 0.00 0.00 0.00 99 1009.9
20260504192710 25 103 0.0 1.6 0.00 0.00 0.00 99 1009.7
20260504192208 25 104 0.0 0.0 0.00 0.00 0.00 99 1009.8
20260504191706 25 90 0.0 1.6 0.00 0.00 0.00 99 1009.9
20260504191202 25 111 1.6 1.6 0.00 0.00 0.00 99 1009.9
20260504190658 25 108 0.0 0.0 0.00 0.00 0.00 99 1010.1
20260504190154 25 95 0.0 0.0 0.00 0.00 0.00 99 1010.3
20260504185651 25 109 0.0 0.0 0.00 0.00 0.00 99 1010.4
20260504185148 25 103 0.0 0.0 0.00 0.00 0.00 99 1010.4
20260504184644 25 93 0.0 0.0 0.00 0.00 0.00 99 1010.2
20260504184139 25 100 0.0 0.0 0.00 0.00 0.00 99 1010.3
20260504183636 25 100 0.0 0.0 0.00 0.00 0.00 99 1010.4
20260504183134 25 84 0.0 0.0 0.00 0.00 0.00 99 1010.4
20260504182631 25 102 0.0 0.0 0.00 0.00 0.00 99 1010.3
20260504182129 25 103 0.0 0.0 0.00 0.00 0.00 99 1010.7
20260504181626 25 108 0.0 0.0 0.00 0.00 0.00 99 1010.6
20260504181123 25 109 0.0 0.0 0.00 0.00 0.00 99 1010.5
20260504180622 25 109 0.0 0.0 0.00 0.00 0.00 99 1011.1
20260504180121 25 107 0.0 0.0 0.00 0.00 0.00 99 1010.9
20260504175618 25 108 0.0 0.0 0.00 0.00 0.00 99 1011.0
20260504175114 25 100 0.0 0.0 0.00 0.00 0.00 99 1010.9
20260504174613 25 74 1.6 1.6 0.00 0.00 0.00 99 1010.8
20260504174109 25 69 1.6 1.6 0.00 0.00 0.00 99 1011.1
20260504173606 25 100 0.0 0.0 0.00 0.00 0.00 99 1011.0
20260504173104 25 101 0.0 0.0 0.00 0.00 0.00 99 1011.2
20260504172559 25 94 0.0 0.0 0.00 0.00 0.00 99 1011.2
20260504172056 25 107 0.0 0.0 0.00 0.00 0.00 99 1011.4
20260504171552 25 100 0.0 1.6 0.00 0.00 0.00 99 1011.6
20260504171050 25 81 1.6 1.6 0.00 0.00 0.00 99 1011.4
20260504170545 25 97 0.0 0.0 0.00 0.00 0.00 99 1011.6
20260504150930 25 106 0.0 0.0 0.00 0.05 0.05 99 1011.4
20260504150426 25 103 0.0 0.0 0.00 0.05 0.05 99 1011.5
20260504140853 26 54 1.6 3.2 0.00 0.05 0.05 99 1011.0
20260504140349 26 88 0.0 0.0 0.00 0.05 0.05 99 1010.9
20260504130817 26 106 0.0 0.0 0.00 0.05 0.05 97 1010.5
20260504130314 26 106 0.0 0.0 0.00 0.05 0.05 97 1010.7
20260504120237 26 64 0.0 1.6 0.00 0.05 0.05 97 1010.0
20260504110704 26 116 0.0 3.2 0.00 0.05 0.05 98 1008.9
20260504110201 26 114 0.0 3.2 0.00 0.05 0.05 98 1008.9
20260504100119 26 105 0.0 1.6 0.00 0.05 0.05 98 1007.9
20260504081512 27 274 8.0 11.3 0.00 0.00 0.00 89 1009.7
20260504081008 30 263 8.0 11.3 0.00 0.00 0.00 86 1009.5
20260504080504 30 182 4.8 8.0 0.00 0.00 0.00 90 1009.1
20260504050317 31 132 1.6 4.8 0.00 0.00 0.00 86 1011.5
20260504045814 30 129 1.6 1.6 0.00 0.00 0.00 87 1011.3
20260504045314 30 138 4.8 8.0 0.00 0.00 0.00 86 1011.7
20260504044812 31 164 3.2 4.8 0.00 0.00 0.00 87 1011.7
20260504044309 31 109 3.2 4.8 0.00 0.00 0.00 84 1011.9
20260504043806 32 133 4.8 11.3 0.00 0.00 0.00 84 1011.9
20260504043303 31 71 1.6 4.8 0.00 0.00 0.00 83 1011.9
20260504042755 32 81 3.2 4.8 0.00 0.00 0.00 82 1012.1
20260504042251 32 130 3.2 3.2 0.00 0.00 0.00 80 1012.1
20260504041748 32 119 3.2 3.2 0.00 0.00 0.00 80 1012.2
20260504041244 31 140 0.0 4.8 0.00 0.00 0.00 82 1012.3
20260504040740 31 112 3.2 3.2 0.00 0.00 0.00 83 1012.2
20260504040238 31 119 3.2 8.0 0.00 0.00 0.00 85 1012.2
20260504035733 31 139 4.8 8.0 0.00 0.00 0.00 86 1012.4
20260504035231 32 117 3.2 8.0 0.00 0.00 0.00 85 1012.6
20260504034729 32 96 1.6 4.8 0.00 0.00 0.00 78 1012.5
20260504034226 32 107 1.6 4.8 0.00 0.00 0.00 82 1012.4
20260504033723 31 96 3.2 3.2 0.00 0.00 0.00 81 1012.5
20260504033220 31 74 1.6 3.2 0.00 0.00 0.00 80 1012.6
20260504032717 31 109 1.6 1.6 0.00 0.00 0.00 81 1012.3
20260504032214 31 105 3.2 4.8 0.00 0.00 0.00 83 1012.4
20260504031711 31 56 4.8 8.0 0.00 0.00 0.00 83 1012.5
20260504031208 31 99 1.6 3.2 0.00 0.00 0.00 83 1012.5
20260504030704 31 118 1.6 1.6 0.00 0.00 0.00 86 1012.5
20260504030202 30 84 0.0 1.6 0.00 0.00 0.00 84 1012.5
20260504025658 30 97 3.2 3.2 0.00 0.00 0.00 85 1012.5
20260504025155 30 120 3.2 3.2 0.00 0.00 0.00 86 1012.5
20260504024652 30 103 0.0 3.2 0.00 0.00 0.00 84 1012.5
20260504024148 30 85 1.6 3.2 0.00 0.00 0.00 86 1012.4
20260504023645 30 103 1.6 1.6 0.00 0.00 0.00 85 1012.7
20260504023141 30 116 1.6 1.6 0.00 0.00 0.00 87 1012.7
20260504022637 30 105 1.6 3.2 0.00 0.00 0.00 87 1012.7
20260504022133 30 105 1.6 3.2 0.00 0.00 0.00 87 1012.6
20260504021632 30 118 1.6 1.6 0.00 0.00 0.00 87 1012.7
20260504021128 29 107 0.0 3.2 0.00 0.00 0.00 88 1012.8
20260504020625 29 117 1.6 3.2 0.00 0.00 0.00 92 1012.3
20260504020121 28 108 0.0 3.2 0.00 0.00 0.00 94 1012.9
20260504015617 28 92 0.0 1.6 0.00 0.00 0.00 92 1012.6
20260504015114 28 103 0.0 1.6 0.00 0.00 0.00 92 1012.7
20260504014610 28 100 0.0 1.6 0.00 0.00 0.00 93 1012.7
20260504014107 28 131 3.2 3.2 0.00 0.00 0.00 91 1012.6
20260504013605 27 90 0.0 0.0 0.00 0.00 0.00 96 1012.7
20260504013102 26 63 1.6 1.6 0.00 0.00 0.00 99 1012.4
20260504012559 26 61 1.6 3.2 0.00 0.00 0.00 99 1012.4
20260504012057 25 81 1.6 3.2 0.00 0.00 0.00 99 1012.4
20260504011553 25 91 0.0 3.2 0.00 0.00 0.00 99 1012.4
20260504011049 25 83 0.0 1.6 0.00 0.00 0.00 99 1012.1
20260504010545 25 96 0.0 1.6 0.00 0.00 0.00 99 1012.2
20260504010042 25 76 1.6 1.6 0.00 0.00 0.00 99 1011.8
20260504005538 25 98 1.6 1.6 0.00 0.00 0.00 99 1012.0
20260504005036 25 73 0.0 1.6 0.00 0.00 0.00 99 1011.7
20260504004533 25 81 1.6 1.6 0.00 0.00 0.00 99 1012.0
20260504004030 25 11 4.8 4.8 0.00 0.00 0.00 99 1011.9
20260504003526 25 25 1.6 3.2 0.00 0.00 0.00 99 1011.8
20260504003024 25 65 1.6 1.6 0.00 0.00 0.00 99 1012.1
20260504002520 25 103 3.2 3.2 0.00 0.00 0.00 99 1012.0
20260504002017 25 125 1.6 1.6 0.00 0.00 0.00 99 1011.6
20260504001515 25 90 0.0 0.0 0.00 0.00 0.00 99 1011.2
20260504001011 25 88 0.0 1.6 0.00 0.00 0.00 99 1011.1
20260504000508 24 76 1.6 1.6 0.00 0.00 0.00 99 1010.7
20260504000006 24 111 0.0 1.6 0.00 0.00 0.00 99 1011.0
20260503235504 24 54 1.6 1.6 0.00 0.00 0.00 99 1011.0
20260503235000 24 69 0.0 0.0 0.00 0.00 0.00 99 1011.3
20260503234458 24 95 0.0 0.0 0.00 0.00 0.00 99 1011.1
20260503233956 23 93 0.0 0.0 0.00 0.00 0.00 99 1011.1
20260503233452 23 100 0.0 0.0 0.00 0.00 0.00 99 1010.9
20260503232948 23 100 0.0 0.0 0.00 0.00 0.00 99 1011.0
20260503232445 23 101 0.0 0.0 0.00 0.00 0.00 99 1010.9
20260503231943 23 97 0.0 0.0 0.00 0.00 0.00 99 1010.5
20260503231440 23 96 0.0 0.0 0.00 0.00 0.00 99 1010.7
20260503230937 23 107 0.0 0.0 0.00 0.00 0.00 99 1010.9
20260503230433 23 106 0.0 0.0 0.00 0.00 0.00 99 1010.6
20260503225931 23 116 0.0 0.0 0.00 0.00 0.00 99 1010.7
20260503225428 23 90 0.0 0.0 0.00 0.00 0.00 99 1010.6
20260503224923 23 98 0.0 0.0 0.00 0.00 0.00 99 1010.6
20260503224421 23 98 0.0 0.0 0.00 0.00 0.00 99 1010.6
20260503223918 23 111 0.0 0.0 0.00 0.00 0.00 99 1010.3
20260503223416 23 111 0.0 0.0 0.00 0.00 0.00 99 1010.2
20260503222916 23 107 0.0 0.0 0.00 0.00 0.00 99 1010.2
20260503222415 23 75 0.0 0.0 0.00 0.00 0.00 99 1009.9
20260503221913 23 98 0.0 0.0 0.00 0.00 0.00 99 1010.0
20260503221411 23 100 0.0 0.0 0.00 0.00 0.00 99 1009.8
20260503220907 23 98 0.0 0.0 0.00 0.00 0.00 99 1009.9
20260503220404 23 94 0.0 0.0 0.00 0.00 0.00 99 1009.5
20260503215901 23 98 0.0 0.0 0.00 0.00 0.00 99 1009.5
20260503215358 23 109 0.0 0.0 0.00 0.00 0.00 99 1009.4
20260503214855 23 112 0.0 0.0 0.00 0.00 0.00 99 1009.7
20260503214353 23 94 0.0 0.0 0.00 0.00 0.00 99 1009.6